EIN580 EIDW-LEMG

Flight info

Callsign EIN580
Flight time N/A
Altitude 39000
Route BEPAN4E BEPAN DCT BANBA DCT PAVLO/N0476F330 DCT DOLUR/N0476F390 DCT IDRIK DCT DELOG DCT CRISA N864 VULPE
Aircraft A333/H-SDE3GHIJ2J3J5M1RVWXY/LB2D1

Departure

Time 2026-05-04 08:35
Airport Dublin Airport (EIDW)

Arrival

Time N/A
Airport Málaga-Costa del Sol Airport (LEMG)
Time Latitude Longitude Altitude Speed Heading
2026-05-04 08:08 53.42624 -6.24711 215 ft 0 kts 90°
2026-05-04 08:25 53.42624 -6.24716 220 ft 3 kts 90°
2026-05-04 08:25 53.42624 -6.24756 215 ft 1 kts 90°
2026-05-04 08:26 53.42624 -6.24795 225 ft 4 kts 93°
2026-05-04 08:27 53.42592 -6.24862 216 ft 0 kts 332°
2026-05-04 08:29 53.42599 -6.24868 221 ft 5 kts 334°
2026-05-04 08:31 53.42527 -6.25711 222 ft 20 kts 225°
2026-05-04 08:33 53.42325 -6.27378 218 ft 24 kts 275°
2026-05-04 08:33 53.42341 -6.27651 218 ft 24 kts 276°
2026-05-04 08:35 53.42224 -6.28713 223 ft 44 kts 96°
2026-05-04 08:35 53.42178 -6.27830 223 ft 106 kts 95°
2026-05-04 08:35 53.42108 -6.26309 331 ft 146 kts 91°
2026-05-04 08:35 53.42027 -6.24621 950 ft 146 kts 91°
2026-05-04 08:37 53.41328 -6.12186 3493 ft 236 kts 92°
2026-05-04 08:37 53.41168 -6.09335 3947 ft 252 kts 92°
2026-05-04 08:37 53.40998 -6.06386 4725 ft 256 kts 94°
2026-05-04 08:38 53.40607 -6.03427 5484 ft 264 kts 110°
2026-05-04 08:38 53.39548 -6.00891 6260 ft 272 kts 137°
2026-05-04 08:38 53.37883 -5.99436 7061 ft 279 kts 166°
2026-05-04 08:40 53.23567 -6.04326 11239 ft 353 kts 197°
2026-05-04 08:40 53.21166 -6.05562 11613 ft 366 kts 197°
2026-05-04 08:40 53.18658 -6.06504 12164 ft 373 kts 188°
2026-05-04 08:41 53.16067 -6.07025 12812 ft 376 kts 186°
2026-05-04 08:41 53.13484 -6.07456 13481 ft 379 kts 185°
2026-05-04 08:41 53.10852 -6.08181 14019 ft 385 kts 194°
2026-05-04 08:41 53.08264 -6.09542 14532 ft 390 kts 199°
2026-05-04 08:42 53.05715 -6.11053 15138 ft 392 kts 199°
2026-05-04 08:42 53.03135 -6.12601 15702 ft 395 kts 199°
2026-05-04 08:42 53.00553 -6.14143 16172 ft 401 kts 199°
2026-05-04 08:42 52.97909 -6.15715 16739 ft 404 kts 199°
2026-05-04 08:43 52.95229 -6.17188 17323 ft 405 kts 193°
2026-05-04 08:43 52.92451 -6.18055 17864 ft 408 kts 187°
2026-05-04 08:43 52.89655 -6.18668 18336 ft 412 kts 186°
2026-05-04 08:43 52.86805 -6.19252 18819 ft 414 kts 186°
2026-05-04 08:44 52.83940 -6.19841 19293 ft 416 kts 185°
2026-05-04 08:44 52.81029 -6.20443 19688 ft 421 kts 185°
2026-05-04 08:46 52.60190 -6.24803 22668 ft 442 kts 185°
2026-05-04 08:46 52.57153 -6.25437 23114 ft 445 kts 184°
2026-05-04 08:46 52.54064 -6.26065 23536 ft 447 kts 183°
2026-05-04 08:46 52.50947 -6.26368 23878 ft 449 kts 178°
2026-05-04 08:47 52.47817 -6.26384 24204 ft 451 kts 176°
2026-05-04 08:47 52.44668 -6.26249 24535 ft 453 kts 174°
2026-05-04 08:47 52.41537 -6.26055 24849 ft 456 kts 174°
2026-05-04 08:47 52.38352 -6.25849 25177 ft 458 kts 174°
2026-05-04 08:48 52.35148 -6.25656 25520 ft 461 kts 174°
2026-05-04 08:48 52.31929 -6.25483 25940 ft 463 kts 174°
2026-05-04 08:48 52.28737 -6.25329 26258 ft 465 kts 174°
2026-05-04 08:48 52.25481 -6.25182 26568 ft 468 kts 174°
2026-05-04 08:49 52.22204 -6.25040 26879 ft 471 kts 174°
2026-05-04 08:50 52.02279 -6.24198 28727 ft 485 kts 174°
2026-05-04 08:50 51.98889 -6.24053 28985 ft 487 kts 174°
2026-05-04 08:51 51.95502 -6.23681 29245 ft 486 kts 167°
2026-05-04 08:51 51.92198 -6.22804 29507 ft 486 kts 165°
2026-05-04 08:51 51.88862 -6.21763 29774 ft 487 kts 163°
2026-05-04 08:51 51.85541 -6.20645 30123 ft 488 kts 163°
2026-05-04 08:52 51.83327 -6.19877 30326 ft 487 kts 163°
2026-05-04 08:52 51.78915 -6.18332 30726 ft 487 kts 163°
2026-05-04 08:52 51.75598 -6.17174 31080 ft 486 kts 164°
2026-05-04 08:52 51.72325 -6.16041 31437 ft 485 kts 164°
2026-05-04 08:53 51.69029 -6.14907 31790 ft 484 kts 164°
2026-05-04 08:54 51.47341 -6.07544 34200 ft 476 kts 166°
2026-05-04 08:55 51.44103 -6.06451 34454 ft 475 kts 166°
2026-05-04 08:55 51.40858 -6.05358 34730 ft 475 kts 166°
2026-05-04 08:55 51.37609 -6.04264 35014 ft 475 kts 166°
2026-05-04 08:55 51.34398 -6.03185 35240 ft 475 kts 166°
2026-05-04 08:57 51.11752 -5.95619 36784 ft 475 kts 167°
2026-05-04 09:01 50.67530 -5.74167 38998 ft 479 kts 159°
2026-05-04 09:01 50.61304 -5.70496 38993 ft 478 kts 159°
2026-05-04 09:02 50.55055 -5.66825 38993 ft 478 kts 159°
2026-05-04 09:02 50.48814 -5.63169 38994 ft 478 kts 159°
2026-05-04 09:03 50.42608 -5.59543 38993 ft 478 kts 159°
2026-05-04 09:03 50.36353 -5.55898 38993 ft 478 kts 159°
2026-05-04 09:04 50.30140 -5.52288 38992 ft 478 kts 159°
2026-05-04 09:04 50.23937 -5.48693 38992 ft 477 kts 159°
2026-05-04 09:05 50.17706 -5.45092 38995 ft 477 kts 159°
2026-05-04 09:05 50.11475 -5.41501 38993 ft 477 kts 159°
2026-05-04 09:06 50.05277 -5.37939 38992 ft 477 kts 160°
2026-05-04 09:08 49.80376 -5.23727 38995 ft 477 kts 160°
2026-05-04 09:08 49.74174 -5.20212 38996 ft 476 kts 160°
2026-05-04 09:09 49.67927 -5.16680 38996 ft 476 kts 160°
2026-05-04 09:09 49.61732 -5.13188 38996 ft 476 kts 160°
2026-05-04 09:10 49.55495 -5.09682 38996 ft 476 kts 160°
2026-05-04 09:10 49.49308 -5.06151 38995 ft 476 kts 156°
2026-05-04 09:11 49.43348 -5.01778 38996 ft 476 kts 153°
2026-05-04 09:11 49.37452 -4.97196 38996 ft 476 kts 153°
2026-05-04 09:12 49.31567 -4.92581 38996 ft 475 kts 153°
2026-05-04 09:14 49.07973 -4.74313 39000 ft 475 kts 153°
2026-05-04 09:14 49.02086 -4.69792 38999 ft 475 kts 153°
2026-05-04 09:15 48.96160 -4.65252 38998 ft 475 kts 153°
2026-05-04 09:15 48.90280 -4.60759 38999 ft 475 kts 153°
2026-05-04 09:17 48.63719 -4.40612 38994 ft 475 kts 154°
2026-05-04 09:18 48.57791 -4.36149 38994 ft 475 kts 154°
2026-05-04 09:18 48.51897 -4.31722 38989 ft 474 kts 154°
2026-05-04 09:19 48.45983 -4.27292 38993 ft 473 kts 154°
2026-05-04 09:19 48.40103 -4.22899 38993 ft 473 kts 154°
2026-05-04 09:20 48.34222 -4.18517 38999 ft 473 kts 154°
2026-05-04 09:20 48.28310 -4.14122 38988 ft 472 kts 154°
2026-05-04 09:21 48.22440 -4.09771 38992 ft 473 kts 154°
2026-05-04 09:21 48.16520 -4.05394 38992 ft 473 kts 154°
2026-05-04 09:22 48.10643 -4.01059 38992 ft 473 kts 154°
2026-05-04 09:22 48.04725 -3.96706 38992 ft 473 kts 154°
2026-05-04 09:23 47.98848 -3.92394 38993 ft 473 kts 154°
2026-05-04 09:23 47.92963 -3.88087 38994 ft 472 kts 155°
2026-05-04 09:25 47.69413 -3.70960 38992 ft 469 kts 155°
2026-05-04 09:26 47.63529 -3.66860 38992 ft 468 kts 160°
2026-05-04 09:26 47.57239 -3.64762 38996 ft 465 kts 178°
2026-05-04 09:27 47.50790 -3.64999 38992 ft 464 kts 184°
2026-05-04 09:27 47.44332 -3.65761 38995 ft 464 kts 185°
2026-05-04 09:28 47.37900 -3.66570 38996 ft 464 kts 185°
2026-05-04 09:28 47.31470 -3.67324 38996 ft 464 kts 185°
2026-05-04 09:29 47.25031 -3.68044 38995 ft 463 kts 185°
2026-05-04 09:29 47.18604 -3.68752 38997 ft 463 kts 185°
2026-05-04 09:30 47.12164 -3.69461 38996 ft 463 kts 185°
2026-05-04 09:30 47.05768 -3.70165 39001 ft 463 kts 185°
2026-05-04 09:31 46.99330 -3.70872 38994 ft 463 kts 185°
2026-05-04 09:31 46.92920 -3.71575 38993 ft 463 kts 185°
2026-05-04 09:32 46.86490 -3.72279 38996 ft 463 kts 185°
2026-05-04 09:34 46.60861 -3.75066 39001 ft 462 kts 185°
2026-05-04 09:34 46.54460 -3.75757 39001 ft 462 kts 185°
2026-05-04 09:35 46.48059 -3.76448 39000 ft 462 kts 185°
2026-05-04 09:35 46.41620 -3.77140 39001 ft 462 kts 185°
2026-05-04 09:37 46.16014 -3.79879 39004 ft 462 kts 185°
2026-05-04 09:38 46.09613 -3.80559 39001 ft 462 kts 185°
2026-05-04 09:38 46.03226 -3.81237 39004 ft 462 kts 185°
2026-05-04 09:39 45.96819 -3.81915 39007 ft 462 kts 185°
2026-05-04 09:39 45.90424 -3.82590 39001 ft 462 kts 185°
2026-05-04 09:40 45.84010 -3.83266 39007 ft 461 kts 185°
2026-05-04 09:40 45.77633 -3.83936 39010 ft 461 kts 185°
2026-05-04 09:42 45.52104 -3.86604 39012 ft 459 kts 185°
2026-05-04 09:43 45.45754 -3.87264 39012 ft 459 kts 185°
2026-05-04 09:43 45.39358 -3.87927 39014 ft 459 kts 185°
2026-05-04 09:44 45.33006 -3.88584 39015 ft 460 kts 185°
2026-05-04 09:46 45.07480 -3.91211 39017 ft 460 kts 186°
2026-05-04 09:46 45.01091 -3.91864 39018 ft 460 kts 186°
2026-05-04 09:47 44.94724 -3.92514 39018 ft 460 kts 186°
2026-05-04 09:49 44.69240 -3.95101 39018 ft 459 kts 186°
2026-05-04 09:51 44.46971 -3.97342 39016 ft 459 kts 186°
2026-05-04 09:51 44.41659 -3.97874 39014 ft 458 kts 186°
2026-05-04 09:52 44.35269 -3.98513 39022 ft 458 kts 186°
2026-05-04 09:52 44.28933 -3.99183 39023 ft 458 kts 187°
2026-05-04 09:53 44.22610 -3.99912 39025 ft 458 kts 187°
2026-05-04 09:53 44.16249 -4.00652 39025 ft 458 kts 187°
2026-05-04 09:54 44.09934 -4.01378 39024 ft 457 kts 187°
2026-05-04 09:54 44.03588 -4.02101 39028 ft 456 kts 187°
2026-05-04 09:55 43.97267 -4.02820 39035 ft 456 kts 187°
2026-05-04 09:55 43.90918 -4.03540 39029 ft 456 kts 187°
2026-05-04 09:56 43.84633 -4.04251 39031 ft 456 kts 187°
2026-05-04 09:56 43.78293 -4.04968 39034 ft 456 kts 187°
2026-05-04 09:57 43.71981 -4.05679 39036 ft 456 kts 187°
2026-05-04 09:57 43.65649 -4.06391 39039 ft 456 kts 187°
2026-05-04 09:58 43.59340 -4.07099 39046 ft 456 kts 187°
2026-05-04 09:58 43.53022 -4.07807 39049 ft 456 kts 187°
2026-05-04 10:00 43.27741 -4.10624 39052 ft 455 kts 187°
2026-05-04 10:04 42.83634 -4.15485 39034 ft 454 kts 188°
2026-05-04 10:04 42.77325 -4.16174 39031 ft 454 kts 188°
2026-05-04 10:05 42.71054 -4.16859 39030 ft 454 kts 188°
2026-05-04 10:05 42.64738 -4.17546 39030 ft 454 kts 188°
2026-05-04 10:06 42.58445 -4.18229 39019 ft 454 kts 188°
2026-05-04 10:06 42.52162 -4.18910 39013 ft 454 kts 188°
2026-05-04 10:08 42.30170 -4.21283 39014 ft 453 kts 188°
2026-05-04 10:08 42.23906 -4.21955 39018 ft 452 kts 188°
2026-05-04 10:09 42.17622 -4.22629 39018 ft 452 kts 188°
2026-05-04 10:09 42.11376 -4.23297 39002 ft 452 kts 188°
2026-05-04 10:10 42.05094 -4.23967 39011 ft 451 kts 188°
2026-05-04 10:10 41.98868 -4.24630 39019 ft 451 kts 188°
2026-05-04 10:11 41.92609 -4.25296 39018 ft 451 kts 188°
2026-05-04 10:11 41.86349 -4.25960 39014 ft 450 kts 188°
2026-05-04 10:12 41.80143 -4.26617 39023 ft 449 kts 188°
2026-05-04 10:12 41.73914 -4.27275 39013 ft 449 kts 188°
2026-05-04 10:13 41.67679 -4.27934 39011 ft 449 kts 188°
2026-05-04 10:13 41.61478 -4.28586 39014 ft 448 kts 188°
2026-05-04 10:14 41.55258 -4.29240 39016 ft 448 kts 188°
2026-05-04 10:16 41.30430 -4.31838 39021 ft 447 kts 189°
2026-05-04 10:16 41.24252 -4.32481 39019 ft 447 kts 189°
2026-05-04 10:17 41.18046 -4.33126 39021 ft 447 kts 189°
2026-05-04 10:19 40.93253 -4.35690 39015 ft 446 kts 189°
2026-05-04 10:19 40.87053 -4.36328 39014 ft 446 kts 189°
2026-05-04 10:20 40.80894 -4.36961 38999 ft 446 kts 189°
2026-05-04 10:20 40.74715 -4.37593 39006 ft 444 kts 189°
2026-05-04 10:21 40.68546 -4.38225 39011 ft 444 kts 189°
2026-05-04 10:21 40.62381 -4.38856 39003 ft 444 kts 189°
2026-05-04 10:22 40.53179 -4.39795 38995 ft 444 kts 189°
2026-05-04 10:23 40.47007 -4.40422 38994 ft 444 kts 189°
2026-05-04 10:25 40.22432 -4.42910 38992 ft 443 kts 190°
2026-05-04 10:25 40.16279 -4.43531 38978 ft 443 kts 190°
2026-05-04 10:26 40.10125 -4.44150 38996 ft 443 kts 190°
2026-05-04 10:26 40.03971 -4.44768 38994 ft 443 kts 190°
2026-05-04 10:27 39.97864 -4.45380 38995 ft 443 kts 190°
2026-05-04 10:27 39.91703 -4.45997 38996 ft 443 kts 191°
2026-05-04 10:28 39.85548 -4.46611 39002 ft 443 kts 191°
2026-05-04 10:28 39.79434 -4.47220 38998 ft 443 kts 191°
2026-05-04 10:29 39.73282 -4.47832 39004 ft 443 kts 191°
2026-05-04 10:29 39.67127 -4.48443 38999 ft 443 kts 191°
2026-05-04 10:30 39.61002 -4.49051 38999 ft 443 kts 191°
2026-05-04 10:30 39.54835 -4.49661 39016 ft 443 kts 191°
2026-05-04 10:31 39.48714 -4.50264 38983 ft 443 kts 191°
2026-05-04 10:32 39.27184 -4.52384 39017 ft 444 kts 191°
2026-05-04 10:33 39.21018 -4.52988 39024 ft 444 kts 191°
2026-05-04 10:33 39.14850 -4.53592 39020 ft 443 kts 191°
2026-05-04 10:34 39.08738 -4.54189 39024 ft 443 kts 191°
2026-05-04 10:34 39.02565 -4.54790 39010 ft 443 kts 191°
2026-05-04 10:35 38.96454 -4.55383 39029 ft 442 kts 191°
2026-05-04 10:35 38.90363 -4.56223 39028 ft 437 kts 195°
2026-05-04 10:36 38.84356 -4.57497 39037 ft 436 kts 197°
2026-05-04 10:36 38.78370 -4.58828 39016 ft 437 kts 196°
2026-05-04 10:37 38.72405 -4.60106 39029 ft 437 kts 196°
2026-05-04 10:37 38.71394 -4.60319 39028 ft 437 kts 196°
2026-05-04 10:40 38.39530 -4.66901 39026 ft 439 kts 196°
2026-05-04 10:40 38.33517 -4.68137 38845 ft 438 kts 196°
2026-05-04 10:41 38.27952 -4.69278 38371 ft 437 kts 196°
2026-05-04 10:41 38.24987 -4.69886 38097 ft 436 kts 196°
2026-05-04 10:41 38.21979 -4.70504 37822 ft 436 kts 196°
2026-05-04 10:41 38.18970 -4.71120 37543 ft 436 kts 196°
2026-05-04 10:42 38.15974 -4.71733 37240 ft 435 kts 196°
2026-05-04 10:42 38.12994 -4.72341 36717 ft 433 kts 196°
2026-05-04 10:42 38.10051 -4.72944 36099 ft 433 kts 196°
2026-05-04 10:42 38.07066 -4.73555 35362 ft 435 kts 196°
2026-05-04 10:43 38.04067 -4.74169 34589 ft 437 kts 196°
2026-05-04 10:44 37.82749 -4.78521 29179 ft 431 kts 198°
2026-05-04 10:45 37.79942 -4.79445 29080 ft 408 kts 206°
2026-05-04 10:45 37.77410 -4.80863 28979 ft 386 kts 215°
2026-05-04 10:45 37.75234 -4.82684 28881 ft 366 kts 223°
2026-05-04 10:45 37.73399 -4.84824 28711 ft 351 kts 231°
2026-05-04 10:46 37.71903 -4.87143 28566 ft 338 kts 236°
2026-05-04 10:46 37.70538 -4.89519 28405 ft 328 kts 237°
2026-05-04 10:46 37.69236 -4.91822 28259 ft 318 kts 237°
2026-05-04 10:46 37.67969 -4.94058 28118 ft 309 kts 237°
2026-05-04 10:47 37.66728 -4.96239 27926 ft 302 kts 237°
2026-05-04 10:47 37.65512 -4.98372 27493 ft 302 kts 237°
2026-05-04 10:47 37.64290 -5.00499 27122 ft 301 kts 236°
2026-05-04 10:47 37.62914 -5.02479 26770 ft 302 kts 227°
2026-05-04 10:49 37.49802 -5.11107 24223 ft 320 kts 193°
2026-05-04 10:49 37.47544 -5.11199 23828 ft 326 kts 188°
2026-05-04 10:50 37.45296 -5.11158 23382 ft 327 kts 188°
2026-05-04 10:51 37.29982 -5.05157 20461 ft 350 kts 157°
2026-05-04 10:52 37.27906 -5.03627 20033 ft 347 kts 160°
2026-05-04 10:52 37.25690 -5.02617 19593 ft 332 kts 178°
2026-05-04 10:52 37.23422 -5.02366 19188 ft 324 kts 186°
2026-05-04 10:54 37.08240 -5.02186 16377 ft 300 kts 186°
2026-05-04 10:54 37.06151 -5.02160 15994 ft 300 kts 186°
2026-05-04 10:56 36.91603 -5.00191 14266 ft 324 kts 146°
2026-05-04 10:56 36.89973 -4.98271 14000 ft 326 kts 140°
2026-05-04 10:56 36.88394 -4.96240 13704 ft 324 kts 139°
2026-05-04 10:57 36.86832 -4.94223 13434 ft 321 kts 140°
2026-05-04 10:57 36.85290 -4.92247 13189 ft 318 kts 140°
2026-05-04 10:57 36.83734 -4.90267 12937 ft 317 kts 140°
2026-05-04 10:57 36.82183 -4.88305 12678 ft 316 kts 140°
2026-05-04 10:58 36.80652 -4.86384 12413 ft 315 kts 141°
2026-05-04 10:58 36.79064 -4.84513 12156 ft 313 kts 143°
2026-05-04 10:58 36.77461 -4.82681 11905 ft 312 kts 143°
2026-05-04 10:58 36.75859 -4.80862 11648 ft 311 kts 143°
2026-05-04 10:59 36.74263 -4.79051 11408 ft 310 kts 143°
2026-05-04 10:59 36.72668 -4.77241 11149 ft 310 kts 143°
2026-05-04 10:59 36.71077 -4.75436 10892 ft 309 kts 143°
2026-05-04 10:59 36.69493 -4.73640 10636 ft 308 kts 143°
2026-05-04 11:00 36.67909 -4.71844 10422 ft 307 kts 143°
2026-05-04 11:01 36.57544 -4.60119 8766 ft 276 kts 143°
2026-05-04 11:02 36.56124 -4.58519 8549 ft 275 kts 143°
2026-05-04 11:02 36.54723 -4.56935 8399 ft 268 kts 142°